This is the latest recevied weather packets stored in our database for station/object NZ3C. If no packets are shown the sender has not sent any weather packets the latest 1 day(s).
| Time | Temp. | Humidity | Pressure | Rain* | Wind** | Luminosity | Snow |
|---|---|---|---|---|---|---|---|
| 1778044549 | 16.67° C | 79% | 1017.6 hPa | 0 mm | 0.45 m/s, 296° | 0 W/m² | - |
| 1778044246 | 16.67° C | 78% | 1017.6 hPa | 0 mm | 0 m/s | 0 W/m² | - |
| 1778043944 | 16.67° C | 78% | 1017.8 hPa | 0 mm | 0.45 m/s, 322° | 0 W/m² | - |
| 1778043641 | 16.67° C | 78% | 1017.7 hPa | 0 mm | 0.45 m/s, 253° | 0 W/m² | - |
| 1778043338 | 16.67° C | 78% | 1017.6 hPa | 0 mm | 0 m/s | 0 W/m² | - |
| 1778043034 | 16.67° C | 78% | 1017.7 hPa | 0 mm | 0.89 m/s, 105° | 0 W/m² | - |
| 1778042732 | 16.67° C | 78% | 1017.6 hPa | 0 mm | 0.45 m/s, 317° | 0 W/m² | - |
| 1778042429 | 16.67° C | 78% | 1017.6 hPa | 0 mm | 0.89 m/s, 277° | 0 W/m² | - |
| 1778042126 | 16.67° C | 78% | 1017.7 hPa | 0 mm | 0.89 m/s, 85° | 0 W/m² | - |
| 1778041825 | 16.67° C | 78% | 1017.8 hPa | 0 mm | 0 m/s | 0 W/m² | - |
| 1778041523 | 16.67° C | 78% | 1018 hPa | 0 mm | 0.89 m/s, 275° | 0 W/m² | - |
| 1778041221 | 16.67° C | 78% | 1017.9 hPa | 0 mm | 0.45 m/s, 326° | 0 W/m² | - |
| 1778040919 | 17.22° C | 77% | 1017.9 hPa | 0 mm | 0 m/s | 0 W/m² | - |
| 1778040616 | 17.22° C | 77% | 1018 hPa | 0 mm | 0.89 m/s, 98° | 0 W/m² | - |
| 1778040314 | 17.22° C | 77% | 1017.9 hPa | 0 mm | 0.89 m/s, 135° | 0 W/m² | - |
| 1778040009 | 17.22° C | 76% | 1017.9 hPa | 0 mm | 0.45 m/s, 72° | 0 W/m² | - |
| 1778039706 | 17.22° C | 76% | 1017.6 hPa | 0 mm | 0.89 m/s, 242° | 0 W/m² | - |
| 1778039403 | 17.78° C | 75% | 1017.9 hPa | 0 mm | 0.45 m/s, 114° | 0 W/m² | - |
| 1778039101 | 17.78° C | 75% | 1018.1 hPa | 0 mm | 0 m/s | 0 W/m² | - |
| 1778038797 | 17.78° C | 75% | 1018.1 hPa | 0 mm | 0.89 m/s, 178° | 0 W/m² | - |
| 1778038495 | 17.78° C | 75% | 1018 hPa | 0 mm | 0.45 m/s, 99° | 0 W/m² | - |
| 1778038191 | 17.78° C | 75% | 1018.1 hPa | 0 mm | 0.45 m/s, 346° | 0 W/m² | - |
| 1778037889 | 17.78° C | 74% | 1018 hPa | 0 mm | 0.45 m/s, 278° | 0 W/m² | - |
| 1778037585 | 17.78° C | 74% | 1018.2 hPa | 0 mm | 0.45 m/s, 333° | 0 W/m² | - |
| 1778037283 | 17.78° C | 74% | 1018.3 hPa | 0 mm | 0 m/s | 0 W/m² | - |
* Rain latest hour (hover to see other rain measurements)
** Current wind speed in m/s (hover to see current wind gust speed)